Location: Silverado Canyon
(38.4574°N, 119.1963°W)
Time: 08:36:11
(UTC+00:00)

Daily predictions for brighter satellites

Satellite Brightness Start Highest point End
(mag) Time Altitude Azimuth Time Altitude Azimuth Time Altitude Azimuth
H-2A R/B 2.1 12:00:20 10° NNE 12:04:11 87° WNW 12:05:19 45° SSW
TSX-5 3.7 12:06:59 50° NNW 12:06:59 50° NNW 12:09:33 10° NNE
CZ-4B R/B 4.4 12:03:41 10° NNE 12:07:58 42° E 12:12:06 10° S
Cosmos 1315 Rocket 4.5 12:11:27 21° NW 12:11:27 21° NW 12:13:25 10° NNW
CZ-2C R/B 3.0 12:08:50 10° NNE 12:13:47 60° E 12:18:51 10° S
Cosmos 2292 Rocket 4.1 12:14:41 10° S 12:19:30 58° E 12:23:12 10° NNE
Meteor 1-31 Rocket 3.5 12:15:50 10° NNE 12:19:39 54° E 12:23:25 10° S
Cosmos 1782 Rocket 3.4 12:15:26 10° N 12:19:50 81° W 12:24:15 10° S
PSLV R/B 4.2 12:18:27 10° S 12:22:25 44° W 12:26:21 10° NNW
BREEZE-M DEB (TANK) 3.6 12:21:01 17° SSW 12:24:05 41° SSE 12:26:29 10° ENE
OAO 3 Rocket 3.4 12:22:37 30° SW 12:24:37 53° S 12:29:08 10° E
USA 215 3.8 12:22:27 10° NE 12:28:53 57° SE 12:35:17 10° SSW
Cosmos 1703 Rocket 4.2 12:27:54 28° WSW 12:29:13 35° WNW 12:33:15 10° NNW
ADEOS 4.2 12:27:08 10° N 12:31:48 34° WNW 12:34:29 21° WSW
Atlas Centaur 2 4.3 12:32:56 11° SW 12:34:15 12° SSW 12:36:37 10° S
Okean 1-7 3.6 12:32:28 22° SW 12:34:42 36° WNW 12:38:47 10° N
Abrixas rocket 2.2 12:35:45 34° W 12:36:45 54° NNW 12:39:44 10° NE
Okean 1 3.2 12:33:11 10° SSW 12:37:06 63° W 12:41:03 10° N
COSMOS 2441 4.5 12:32:19 10° N 12:37:06 56° WNW 12:41:53 10° SSW
MSX 3.9 12:31:59 10° N 12:37:36 55° WNW 12:43:09 10° SSW
CZ-4B R/B 3.5 12:34:30 10° NNE 12:38:09 87° WNW 12:41:49 10° SSW
Gbstr 26 Del rocket 4.5 12:30:53 10° NW 12:38:56 66° SW 12:46:15 10° SE
Cosmos 2112 Rocket 4.0 12:34:36 10° SSW 12:39:47 60° WNW 12:44:58 10° N
ATLAS CENTAUR R/B 2.6 12:37:56 10° NNW 12:42:12 45° NE 12:46:07 10° SE
BREEZE-M DEB (TANK) 3.6 12:31:13 10° SW 12:42:48 65° SE 12:46:15 10° ENE
S3M 4.4 12:37:19 10° NNW 12:42:58 38° W 12:48:41 10° SSW
Cosmos 1484 Rocket 4.1 12:41:44 10° NNE 12:45:16 41° E 12:48:47 10° S
Unknown 3.5 12:42:17 10° NW 12:45:29 59° NE 12:48:38 10° ESE
H-II Stage 2 4.3 12:44:24 12° SW 12:47:53 23° S 12:58:48 10° SE
BREEZE-M DEB (TANK) 3.9 12:43:44 10° WNW 12:51:22 35° N 12:54:19 10° ENE
Cosmos 1975 2.8 12:47:48 10° N 12:51:54 89° WSW 12:55:58 10° S
Cosmos 1697 Rocket 2.8 12:48:49 10° SSW 12:54:27 82° ESE 13:00:09 10° NNE
Sich 1 Rocket 4.1 12:51:40 10° NNW 12:55:51 39° W 13:00:02 10° SSW
SeaSat 1 3.0 12:51:55 10° N 12:56:29 39° WNW 13:01:01 10° SW
Cosmos 2221 Rocket 3.8 12:52:48 10° SSW 12:57:02 47° W 13:01:19 10° N
Meteor 1-19 Rocket 4.2 12:53:19 10° SSW 12:58:59 77° W 13:04:52 10° N
Cosmos 158 Rocket 4.0 12:53:59 10° SSW 12:59:10 71° WNW 13:04:31 10° NNE
OAO 2 Rocket 3.6 12:55:14 15° W 12:59:13 52° S 13:03:58 10° ESE
Cosmos 2227 Rocket 2.2 12:54:58 10° NNW 13:00:40 76° WSW 13:06:19 10° SSE
Meteor PRIRODA 3.7 13:01:01 10° N 13:04:40 59° WNW 13:08:19 10° SSW
Cosmos 1743 3.2 13:02:06 10° NNW 13:05:43 37° W 13:09:18 10° SSW
USA 229 DEB 4.5 12:59:54 10° SSW 13:06:13 54° ESE 13:12:47 10° NE
Cosmos 1680 Rocket 4.4 13:01:42 10° SW 13:06:14 29° WNW 13:10:48 10° N
USA 229 4.5 12:59:59 10° SSW 13:06:19 53° ESE 13:12:52 10° NE
Meteor 2-9 Rocket 4.1 13:03:02 10° N 13:08:24 89° W 13:13:42 10° S
Cosmos 2219 3.7 13:03:49 10° NW 13:08:56 36° WSW 13:14:00 10° SSW
COSMO-SKYMED 1 2.9 13:05:30 10° SSE 13:09:49 74° ENE 13:14:09 10° N
Cosmos 2297 Rocket 2.3 13:04:56 10° NNW 13:10:28 58° WSW 13:15:59 10° S
Meteor 2-4 Rocket 3.7 13:05:20 10° S 13:10:41 87° E 13:16:04 10° N
Unknown 4.5 13:08:30 10° NW 13:11:46 39° NE 13:15:02 10° ESE
IDEFIX/ARIANE 42P 4.1 13:10:34 10° NNW 13:13:44 16° WNW 13:16:53 10° W
COBE Rocket 4.3 13:11:20 10° SSE 13:15:58 67° ENE 13:20:43 10° N
Shenzhou-11 Module 3.1 13:14:52 10° WNW 13:17:22 30° N 13:19:53 10° ENE
